User: anonymous   Login
Location: Unspecified
(0.0000°N, 0.0000°E)
Time: 12:10:06
(UTC+00:00)
Language:

NANOSAT C BR1 - Orbit

View from above orbital plane
View from above orbital plane
View from above satellite
View from above satellite

Ground track
Ground track

The orbit data is extracted from the following two-line orbital elements,

1 40024U 14033Q   20293.86573153 +.00000372 +00000-0 +44299-4 0  9999
2 40024 097.9307 221.8599 0010816 239.5722 120.4427 14.90160844344287
Epoch (UTC): 19 October 2020 20:46:39
Eccentricity: 0.0010816
inclination: 97.9307°
perigee height: 590 km
apogee height: 605 km
right ascension of ascending node: 221.8599°
argument of perigee: 239.5722°
revolutions per day: 14.90160844
mean anomaly at epoch: 120.4427°
orbit number at epoch: 34428

The dashed part of the orbit path shows where the satellite is in the earth's shadow,  

DLR